Overview Statistics Trail Chart Weather Telemetry Raw packets
 

This is the latest recevied weather packets stored in our database for station/object KC4JIR. If no packets are shown the sender has not sent any weather packets the latest 10 day(s).

<< 79 80 81 82 83 84 85 >>
Time Temp. Humidity Pressure Rain* Wind** Luminosity Snow
1787967485 25° C 94% 1014.4 hPa 0 mm - 0 W/m² -
1787967181 25° C 94% 1014.7 hPa 0 mm - 0 W/m² -
1787966877 25.56° C 94% 1014.6 hPa 0 mm - 0 W/m² -
1787966573 25.56° C 93% 1014.4 hPa 0 mm - 0 W/m² -
1787966272 25.56° C 94% 1014.5 hPa 0 mm - 0 W/m² -
1787965967 25.56° C 97% 1014.2 hPa 0 mm - 0 W/m² -
1787965661 25.56° C 99% 1014.2 hPa 0 mm - 0 W/m² -
1787965356 25.56° C 99% 1014.5 hPa 0 mm - 0 W/m² -
1787951382 28.33° C 94% 1013.3 hPa 0 mm - 156 W/m² -
1787951077 28.33° C 94% 1013.3 hPa 0 mm - 156 W/m² -
1787950772 28.33° C 94% 1013.4 hPa 0 mm - 156 W/m² -
1787950467 28.33° C 94% 1013.3 hPa 0 mm - 148 W/m² -
1787945615 28.33° C 88% 1013.8 hPa 0 mm - 172 W/m² -
1787945310 28.33° C 88% 1013.7 hPa 0 mm - 172 W/m² -
1787945005 28.33° C 88% 1014 hPa 0 mm - 172 W/m² -
1787944702 27.78° C 88% 1014 hPa 0 mm - 283 W/m² -
1787944399 27.22° C 96% 1013.9 hPa 0 mm - 400 W/m² -
1787944093 27.22° C 95% 1014 hPa 0 mm - 278 W/m² -
1787943788 27.22° C 94% 1014.3 hPa 0 mm - 189 W/m² -
1787943484 27.22° C 92% 1014.2 hPa 0 mm - 166 W/m² -
1787931674 23.89° C 99% 1015.6 hPa 0 mm - 77 W/m² -
1787931369 23.89° C 99% 1015.5 hPa 0 mm - 77 W/m² -
1787931064 23.89° C 99% 1015.6 hPa 0 mm - 95 W/m² -
1787930763 23.89° C 99% 1015.5 hPa 0 mm - 95 W/m² -
1787930457 23.89° C 99% 1015.6 hPa 0 mm - 102 W/m² -

* Rain latest hour (hover to see other rain measurements)
** Current wind speed in m/s (hover to see current wind gust speed)